Starlink 3852

operational
NORAD ID: 52345 Int'l Des: 2022-045 Owner: SPXS Country: US Constellation: starlink
LEOCIRCULAR

Über Starlink 3852

Beschreibung wird geladen...

Live-Position

3D-Globus wird geladen...

Nächste Überflüge

Höhenverlauf

Altitude vs Time

uPlot chart will show altitude changes over time

Zweizeiliger Elementsatz

1 52345U 22045Q 25298.67791973 .00000165 00000-0 28467-4 0 9990
2 52345 53.2159 85.3751 0001217 83.1293 276.9837 15.08841664195383
Epoch: 25. Okt. 2025 • Age: 14 hours

Aktueller Status

Höhe 549.8 km
Geschwindigkeit 7.59 km/s
Subsatellitenpunkt -30.78°S, 164.89°E
Startdatum 29. Apr. 2022
Alter 3.4 years
Typ internet

Technische Details

Klassifizierung Payload
Masse 297.00 kg
Trockenmasse 275.00 kg
Gesamtmasse 297.00 kg
Länge 0.20 m
Durchmesser 2.80 m
Spannweite 9.00 m
Form Box + pan
Hersteller SPXS
Bus-Typ Starlink
Phasenstatus In Orbit
Besitzer/Staat SPXS/US

Große Konstellationen

Loading constellations...